Wind_Speed
50 53 56 59 62 64 62 61 63 63 64 69 74 72 71 68 64 61 57 54 51 47 51 55 53 55 56 54 54 49 52 43 49 42 43 32 43 43 41 40 41 36 44 41 30
52 54 57 62 62 59 49 46 47 50 58 64 66 68 74 75 69 64 62 58 55 52 48 50 55 54 57 53 54 61 57 40 37 40 43 39 36 46 42 39 37 39 37 36 33
55 59 61 66 64 50 40 31 27 29 35 41 53 64 64 73 74 66 64 61 56 53 50 48 55 57 57 57 52 55 56 40 43 45 43 46 43 44 43 42 40 41 39 39 34
57 60 64 70 62 37 32 31 27 29 29 28 35 37 50 60 74 70 66 62 58 55 50 48 50 58 58 58 52 47 45 47 46 51 42 45 50 38 43 43 44 45 48 38 36
60 61 67 73 59 32 29 28 17 24 19 17 19 30 36 50 67 69 67 63 57 55 52 49 47 51 55 52 56 48 49 49 49 48 45 44 44 42 45 45 47 47 39 36 39
60 64 70 73 57 22 26 23 14 21 14 13 11 23 29 40 50 64 65 57 59 55 54 47 45 44 52 53 55 52 50 52 54 49 43 38 42 51 42 48 48 44 41 41 40
61 66 73 73 50 19 20 21 15 16 13 12 11 19 26 31 46 56 61 56 55 57 52 49 45 44 50 53 52 56 56 54 56 51 49 47 44 48 48 48 43 43 42 41 39
61 67 75 75 44 18 17 15 13 12 13 8 5 12 22 29 30 44 52 58 46 54 51 47 44 43 45 51 52 54 59 52 54 49 45 45 46 46 46 46 42 44 42 41 39
58 66 70 66 52 16 17 13 13 11 6 4 3 14 26 29 29 38 42 56 47 43 50 47 43 41 42 47 52 54 55 51 49 50 44 43 44 46 43 49 45 43 43 42 39
54 62 64 62 59 25 16 14 13 11 5 4 8 14 26 26 35 43 40 48 53 39 42 42 42 41 39 48 47 49 49 51 45 47 48 48 42 48 47 44 46 42 43 43 41
50 58 58 57 55 33 15 11 8 9 7 7 12 18 27 33 45 39 40 43 46 47 41 39 37 34 29 35 42 46 48 45 43 47 45 49 48 44 46 45 44 46 45 44 43
46 54 54 52 43 37 26 17 14 13 8 12 18 26 40 37 29 35 41 39 33 42 41 33 31 30 27 36 46 46 45 44 45 44 44 44 51 45 45 44 43 46 47 44 42
43 47 45 43 37 44 47 35 25 22 23 30 40 46 44 41 35 42 57 42 47 41 35 32 31 29 27 36 42 49 45 45 45 37 35 45 48 45 42 41 42 40 43 45 44
38 40 39 34 34 42 44 50 45 37 31 39 45 41 31 39 37 39 34 29 29 31 31 32 26 28 26 30 40 46 46 44 43 34 36 43 47 45 42 38 40 41 40 40 40
31 33 36 32 23 33 39 29 27 24 28 34 26 29 27 13 37 32 32 27 25 24 27 29 25 25 27 23 30 43 43 43 39 39 39 42 45 44 44 36 33 34 38 36 34
25 27 32 31 22 26 30 32 34 41 34 32 25 25 33 43 32 30 34 30 31 30 26 23 25 24 30 24 29 36 43 41 39 39 37 33 44 42 41 35 34 32 31 32 33
21 22 22 26 28 30 27 26 31 34 32 25 29 23 31 27 20 20 21 23 27 30 28 22 19 23 26 27 28 30 40 41 41 39 36 32 37 40 41 43 36 35 33 33 32
22 16 16 17 18 20 25 21 14 24 32 29 15 21 33 23 25 19 16 21 25 24 24 21 20 25 26 29 33 30 33 39 41 38 35 32 33 35 43 36 34 36 39 37 36
19 15 10 13 13 13 15 15 10 10 15 18 21 16 19 8 14 18 20 14 21 22 19 20 28 25 26 23 26 29 30 35 38 38 36 35 34 33 35 32 31 32 32 34 35
16 17 7 5 7 10 16 17 10 8 7 4 7 8 6 7 8 12 11 15 19 22 21 16 26 29 22 26 24 26 27 30 32 34 35 36 34 33 31 33 31 31 31 32 33
14 12 12 3 1 5 10 11 11 4 8 10 7 3 2 4 5 6 8 9 15 17 19 18 17 23 24 23 24 21 23 25 28 29 31 32 35 35 32 34 34 32 32 31 32
15 12 10 7 4 4 7 14 14 9 6 2 2 3 2 3 6 7 4 5 10 16 18 19 18 28 23 24 22 19 19 19 18 22 21 27 33 33 34 37 35 33 34 34 34
16 13 11 10 6 7 10 13 21 16 11 10 6 4 2 3 6 8 6 7 11 15 17 19 19 23 27 25 22 18 18 22 23 22 20 22 24 22 24 25 27 30 31 31 33
19 14 13 13 11 6 9 13 15 17 16 15 13 9 8 7 8 10 11 10 9 14 17 19 19 20 21 20 21 20 21 23 22 25 21 23 24 21 22 24 24 25 29 29 29
22 17 16 15 16 12 8 14 16 15 15 16 16 14 13 12 11 10 12 13 12 10 12 22 20 20 20 21 23 20 23 22 21 21 23 23 25 23 25 21 20 25 25 26 24
28 21 19 19 19 19 16 13 15 18 18 18 18 17 16 15 14 13 13 14 15 15 15 15 18 20 22 22 24 27 25 21 23 23 23 21 24 24 21 20 22 23 23 23 23
30 22 24 22 21 23 20 17 15 15 16 15 17 17 17 15 16 16 14 14 14 15 15 15 17 17 17 19 22 22 20 20 20 21 23 23 24 23 19 18 21 22 24 24 22
Wind_Direction
323 325 321 315 312 306 297 283 273 263 255 249 244 243 240 235 230 227 225 225 225 222 224 220 215 223 220 221 227 222 214 222 223 220 219 218 228 222 224 226 226 225 231 235 229
329 326 324 325 320 314 302 291 278 268 259 254 248 243 236 236 229 224 223 224 223 222 224 221 217 217 224 219 220 229 211 207 214 217 221 211 226 220 225 224 223 227 233 236 228
332 333 332 331 332 322 309 294 288 291 280 262 253 246 239 232 229 223 220 223 221 222 220 221 217 215 221 223 218 231 230 228 227 226 219 224 218 217 220 224 223 224 227 231 229
333 338 333 341 337 315 297 295 287 303 289 272 253 240 231 227 227 221 217 220 220 220 220 220 218 217 219 225 219 224 223 220 219 226 213 222 229 225 222 222 223 222 225 226 229
337 341 340 344 340 315 289 293 305 315 302 280 265 233 218 220 221 220 215 218 215 218 219 217 219 219 218 223 226 215 217 218 221 222 212 218 223 222 225 223 224 226 227 223 229
342 345 345 345 341 310 295 297 323 327 304 298 264 224 214 213 213 216 211 213 214 214 216 217 216 218 216 216 222 219 218 216 222 222 218 222 224 221 222 226 224 226 225 224 227
347 348 347 348 346 308 310 301 311 325 304 298 263 219 203 190 207 208 206 200 210 212 214 214 215 215 216 217 217 221 217 219 225 225 226 219 219 226 221 224 229 229 228 227 228
351 352 349 351 353 322 324 306 323 314 292 319 242 203 190 190 188 200 197 197 199 208 210 212 213 213 216 215 214 220 224 215 221 223 223 222 218 227 228 225 229 229 231 230 230
355 355 353 357 6 333 334 339 355 347 326 9 183 176 181 181 185 184 179 195 192 199 209 209 211 212 217 216 215 219 224 216 216 222 216 220 220 225 228 227 227 232 233 234 232
359 358 359 358 4 8 355 5 2 16 59 72 136 159 175 162 163 164 155 181 193 185 199 202 209 212 213 218 218 221 224 221 219 218 222 220 217 227 227 230 228 235 237 237 238
2 360 5 5 9 18 15 3 13 41 95 111 145 152 152 145 139 149 173 175 184 198 203 203 208 214 222 223 215 217 219 226 230 223 214 221 217 226 229 226 229 235 238 241 242
8 1 8 12 31 37 37 52 70 80 92 123 131 136 144 151 156 156 168 169 174 200 202 203 206 208 217 208 213 215 216 222 231 229 224 220 219 220 229 227 228 233 238 244 246
11 6 12 26 58 62 66 60 64 92 108 121 126 124 119 133 148 145 148 158 186 191 200 201 205 212 217 214 213 214 217 218 231 229 230 223 217 218 226 228 229 234 238 243 247
11 20 19 43 65 62 59 68 73 85 111 122 132 111 74 124 128 149 171 157 162 171 182 195 201 214 221 215 218 214 213 217 225 228 229 221 220 215 222 224 225 231 237 241 245
14 29 26 40 66 38 35 50 61 78 102 113 69 69 98 84 139 154 168 179 184 184 188 194 202 196 212 223 220 218 214 218 222 226 229 220 223 217 221 224 224 225 233 241 245
11 26 31 39 47 30 35 87 94 103 103 77 90 113 120 130 135 139 166 176 184 191 196 194 208 194 195 210 222 219 215 216 220 230 232 220 220 221 216 222 225 228 233 238 244
8 23 42 46 52 51 77 99 98 67 64 69 121 111 122 118 137 148 162 174 177 179 182 180 187 194 203 212 226 221 219 215 222 228 231 223 220 219 222 221 227 231 234 240 245
3 12 31 48 51 60 92 104 65 52 65 77 130 133 131 76 80 76 156 165 179 182 186 204 184 199 212 217 228 231 225 223 223 227 234 230 230 221 227 227 230 236 236 239 246
357 1 16 47 68 83 115 137 87 97 52 67 70 155 144 94 75 101 113 138 180 177 186 212 197 198 223 230 222 224 222 224 225 230 232 236 236 236 237 234 233 238 240 242 246
345 352 356 20 78 128 131 138 107 105 146 106 73 73 68 88 85 95 106 137 168 192 199 198 210 209 217 218 225 221 216 217 224 232 236 240 243 245 242 243 243 244 243 243 244
325 338 340 327 18 153 183 205 201 176 145 149 158 200 202 150 128 125 111 149 166 178 193 189 201 194 200 208 213 221 218 221 229 236 242 246 242 240 242 245 246 246 249 249 248
307 311 315 324 275 201 191 206 213 209 207 191 32 104 121 196 193 171 135 163 174 185 192 204 190 189 181 186 191 199 210 212 217 231 236 244 251 251 250 249 251 249 251 251 249
297 292 292 291 293 248 223 207 204 212 235 245 264 288 285 219 202 207 224 193 192 194 197 199 205 207 212 217 222 221 219 222 226 229 231 237 244 246 241 242 241 242 242 243 245
291 270 273 268 269 268 239 217 213 219 231 242 250 261 266 261 238 225 236 240 229 212 212 212 216 218 222 224 228 231 233 233 231 232 238 241 245 245 245 238 237 241 241 242 246
305 268 256 256 251 250 243 229 221 221 225 231 242 252 255 256 251 252 247 240 236 237 225 224 224 227 229 230 230 230 230 231 233 229 232 230 243 237 236 240 238 240 243 247 250
307 276 254 247 246 242 239 232 233 233 239 240 240 242 246 247 248 250 249 244 236 240 243 237 226 230 231 230 231 232 236 238 233 235 236 239 240 240 239 238 238 242 246 251 253
305 305 256 247 246 243 235 234 229 231 236 238 242 246 250 256 255 253 251 248 239 242 240 242 233 235 237 239 238 237 239 236 236 234 233 237 236 241 237 230 239 243 248 250 251
Height
5658 5650 5640 5629 5618 5607 5597 5587 5581 5581 5583 5587 5594 5601 5609 5619 5631 5642 5653 5665 5673 5680 5686 5693 5706 5710 5716 5726 5736 5742 5749 5758 5770 5780 5787 5793 5792 5800 5805 5811 5817 5823 5820 5828 5839
5649 5639 5627 5613 5599 5583 5571 5563 5558 5558 5561 5562 5568 5577 5588 5597 5614 5629 5642 5651 5661 5671 5678 5688 5698 5703 5710 5717 5723 5729 5740 5752 5766 5774 5776 5781 5783 5794 5800 5806 5813 5816 5821 5825 5833
5638 5626 5612 5598 5579 5563 5554 5550 5547 5546 5545 5543 5546 5553 5566 5577 5595 5618 5629 5640 5652 5661 5670 5678 5685 5694 5701 5707 5717 5725 5737 5755 5757 5759 5769 5778 5778 5786 5794 5800 5806 5810 5815 5820 5828
5629 5615 5600 5583 5564 5551 5544 5541 5539 5537 5532 5529 5531 5537 5548 5560 5580 5595 5614 5627 5640 5650 5662 5671 5679 5687 5695 5704 5716 5723 5736 5739 5747 5750 5762 5771 5773 5784 5788 5793 5798 5802 5804 5817 5821
5620 5606 5588 5570 5553 5541 5535 5533 5532 5528 5525 5522 5522 5527 5535 5544 5569 5583 5603 5615 5631 5642 5654 5664 5674 5682 5693 5705 5708 5716 5726 5731 5735 5746 5756 5764 5771 5776 5780 5786 5791 5798 5808 5813 5815
5613 5597 5579 5561 5542 5533 5529 5527 5525 5524 5520 5518 5517 5520 5527 5539 5553 5569 5589 5607 5625 5637 5648 5659 5670 5679 5687 5693 5700 5715 5717 5724 5726 5742 5752 5760 5763 5766 5776 5779 5786 5794 5801 5806 5811
5607 5592 5573 5553 5534 5526 5523 5522 5521 5519 5517 5515 5514 5516 5523 5535 5542 5561 5581 5602 5618 5630 5642 5654 5663 5671 5680 5686 5696 5703 5706 5717 5724 5739 5746 5749 5756 5765 5769 5774 5783 5788 5795 5800 5806
5605 5588 5567 5548 5529 5522 5520 5519 5518 5515 5514 5513 5512 5516 5522 5531 5541 5558 5576 5596 5612 5626 5637 5647 5656 5665 5674 5680 5689 5695 5701 5711 5721 5730 5737 5744 5755 5758 5764 5769 5776 5783 5788 5794 5801
5604 5587 5568 5549 5528 5521 5519 5517 5516 5513 5513 5513 5514 5517 5523 5532 5543 5559 5577 5593 5610 5625 5633 5643 5653 5663 5670 5677 5684 5688 5697 5710 5718 5725 5731 5739 5748 5752 5758 5764 5771 5777 5783 5789 5795
5605 5589 5571 5551 5531 5520 5518 5516 5516 5514 5513 5515 5516 5521 5526 5535 5543 5561 5577 5592 5609 5625 5627 5642 5650 5659 5666 5671 5680 5692 5700 5708 5714 5721 5726 5733 5742 5745 5753 5759 5766 5772 5777 5783 5789
5607 5592 5575 5558 5538 5523 5517 5516 5517 5517 5517 5518 5520 5523 5532 5541 5550 5566 5582 5593 5606 5619 5630 5639 5650 5661 5670 5677 5680 5684 5691 5700 5706 5711 5719 5727 5734 5740 5747 5755 5761 5766 5771 5777 5783
5611 5597 5581 5566 5550 5535 5524 5521 5519 5521 5521 5522 5526 5530 5538 5544 5555 5567 5578 5598 5610 5621 5630 5642 5652 5659 5663 5668 5672 5680 5688 5696 5698 5709 5717 5721 5728 5735 5740 5749 5755 5759 5765 5770 5775
5615 5603 5590 5577 5566 5554 5542 5532 5529 5528 5529 5531 5534 5538 5550 5562 5571 5578 5586 5604 5615 5620 5632 5643 5650 5654 5660 5665 5671 5678 5685 5692 5697 5707 5712 5714 5721 5730 5737 5743 5749 5755 5759 5763 5768
5620 5610 5598 5588 5580 5570 5564 5556 5549 5548 5544 5546 5546 5551 5558 5570 5581 5589 5592 5602 5615 5625 5633 5642 5649 5654 5659 5664 5669 5674 5681 5685 5691 5703 5705 5709 5715 5723 5730 5737 5743 5749 5753 5757 5762
5624 5617 5606 5595 5588 5582 5576 5571 5566 5563 5561 5562 5563 5567 5572 5574 5587 5596 5604 5611 5618 5626 5636 5643 5648 5653 5658 5663 5666 5670 5677 5684 5691 5695 5699 5705 5710 5718 5725 5732 5738 5743 5748 5751 5754
5629 5623 5615 5604 5597 5592 5587 5583 5578 5576 5572 5575 5576 5580 5585 5590 5595 5601 5609 5616 5623 5629 5635 5642 5647 5651 5656 5660 5662 5668 5675 5681 5685 5688 5694 5701 5706 5711 5720 5727 5732 5737 5740 5744 5746
5632 5627 5622 5614 5607 5602 5600 5596 5595 5587 5586 5587 5590 5591 5597 5602 5608 5611 5615 5619 5624 5629 5634 5640 5645 5650 5655 5659 5660 5664 5671 5676 5680 5684 5691 5697 5699 5708 5712 5721 5726 5730 5734 5737 5740
5633 5631 5628 5621 5615 5612 5611 5610 5604 5598 5598 5598 5598 5600 5604 5606 5609 5611 5615 5621 5624 5630 5637 5639 5643 5649 5653 5657 5660 5664 5669 5673 5677 5682 5688 5693 5696 5701 5706 5713 5720 5724 5727 5730 5734
5634 5632 5631 5627 5622 5617 5616 5615 5614 5609 5608 5608 5609 5610 5611 5613 5616 5617 5620 5624 5627 5631 5637 5638 5641 5646 5650 5654 5657 5660 5664 5672 5676 5680 5684 5688 5692 5698 5703 5707 5713 5716 5720 5723 5726
5635 5632 5631 5629 5627 5623 5620 5618 5620 5618 5618 5617 5616 5617 5617 5619 5621 5622 5624 5626 5628 5632 5637 5637 5640 5645 5649 5652 5655 5658 5663 5667 5671 5675 5680 5683 5688 5692 5697 5701 5706 5709 5712 5715 5718
5634 5632 5631 5629 5628 5626 5623 5621 5620 5621 5622 5622 5622 5622 5622 5622 5623 5624 5627 5630 5632 5634 5637 5639 5641 5645 5647 5650 5653 5657 5660 5664 5669 5673 5676 5678 5682 5687 5691 5694 5698 5702 5705 5707 5710
5633 5631 5630 5628 5627 5625 5624 5622 5621 5621 5622 5622 5622 5623 5624 5624 5624 5626 5628 5629 5632 5634 5637 5639 5642 5645 5648 5650 5653 5656 5660 5664 5666 5670 5673 5675 5677 5681 5685 5688 5691 5694 5697 5700 5702
5629 5628 5627 5627 5625 5624 5623 5622 5622 5622 5622 5622 5623 5624 5624 5625 5628 5628 5629 5631 5632 5634 5636 5639 5641 5644 5646 5650 5651 5654 5657 5661 5664 5667 5670 5672 5673 5675 5678 5681 5684 5687 5690 5693 5695
5625 5624 5624 5625 5623 5621 5620 5621 5621 5621 5622 5622 5622 5623 5624 5625 5626 5627 5629 5631 5632 5633 5634 5637 5639 5642 5645 5648 5650 5653 5655 5657 5660 5663 5667 5668 5668 5671 5673 5675 5679 5681 5683 5686 5689
5620 5619 5619 5620 5620 5619 5619 5618 5619 5620 5620 5621 5622 5623 5623 5623 5623 5625 5626 5628 5630 5631 5633 5635 5637 5639 5641 5644 5646 5649 5651 5654 5657 5660 5660 5664 5663 5666 5667 5671 5675 5676 5679 5681 5683
5613 5613 5613 5614 5615 5616 5615 5615 5616 5617 5618 5619 5620 5621 5621 5622 5623 5623 5624 5626 5627 5629 5631 5632 5634 5636 5638 5640 5641 5644 5647 5650 5653 5655 5658 5659 5660 5661 5665 5668 5670 5672 5674 5676 5678
5607 5607 5607 5607 5609 5610 5612 5612 5613 5614 5615 5615 5617 5618 5618 5620 5620 5621 5622 5623 5624 5626 5627 5629 5631 5633 5635 5636 5638 5641 5643 5645 5647 5649 5650 5653 5656 5658 5662 5664 5666 5667 5669 5671 5673